EDT,Max TemperatureF,Mean TemperatureF,Min TemperatureF,Max Dew PointF,MeanDew PointF,Min DewpointF,Max Humidity, Mean Humidity, Min Humidity, Max Sea Level PressureIn, Mean Sea Level PressureIn, Min Sea Level PressureIn, Max VisibilityMiles, Mean VisibilityMiles, Min VisibilityMiles, Max Wind SpeedMPH, Mean Wind SpeedMPH, Max Gust SpeedMPH,PrecipitationIn, CloudCover, Events, WindDirDegrees
2012-10-1,60,55,50,54,51,47,96,84,72,29.92,29.72,29.56,10,9,3,8,4,,T,8,Rain,222
2012-10-2,66,57,48,56,52,46,100,84,67,30.08,30.00,29.93,10,4,0,6,0,8,0.00,6,Fog-Rain,177
2012-10-3,64,60,56,61,58,54,100,94,87,30.17,30.11,30.06,10,5,0,5,0,6,0.18,8,Fog-Rain,200
2012-10-4,66,61,56,63,60,55,100,91,81,30.17,30.10,30.03,10,6,0,7,1,9,0.20,8,Fog-Rain-Thunderstorm,176
2012-10-5,74,63,52,59,55,51,100,75,49,30.02,29.97,29.87,10,6,0,13,2,17,0.04,6,Fog-Rain,183
2012-10-6,60,54,47,58,52,35,100,81,61,29.94,29.79,29.70,10,5,0,12,3,20,0.26,7,Fog-Rain,15
2012-10-7,52,46,40,41,37,32,89,69,48,30.10,30.04,29.96,10,10,7,9,1,14,0.14,5,Rain,273
2012-10-8,54,43,32,41,38,30,93,67,41,30.35,30.21,30.10,10,10,9,8,1,10,0.03,6,Rain,99
2012-10-9,56,43,30,42,35,28,100,80,59,30.35,30.28,30.12,10,5,0,13,3,20,0.00,8,Fog,189
2012-10-10,54,49,43,50,45,35,96,79,61,30.12,29.87,29.72,10,8,2,16,4,24,0.21,8,Rain,193
2012-10-11,52,47,41,37,31,26,76,57,38,30.06,29.98,29.82,10,10,9,15,5,24,0.01,7,Rain,255
2012-10-12,50,39,28,38,30,22,85,66,46,30.40,30.14,29.92,10,10,3,20,6,29,0.07,7,Rain-Snow,313
2012-10-13,49,36,23,31,25,21,88,61,34,30.46,30.39,30.24,10,10,10,14,3,21,0.01,2,,265
2012-10-14,53,45,36,50,42,34,96,91,85,30.22,30.00,29.83,10,7,5,8,2,14,0.21,7,Rain,165
2012-10-15,68,59,49,57,53,48,100,84,68,29.79,29.65,29.58,,,,9,1,14,0.39,6,Rain,133
2012-10-16,51,42,32,52,37,30,100,79,58,29.91,29.73,29.61,10,9,0,17,5,28,0.01,6,Rain,309
2012-10-17,59,44,28,40,33,26,100,70,40,30.01,29.98,29.94,10,10,10,5,0,7,0.00,1,,210
2012-10-18,67,51,34,44,36,32,92,60,28,30.07,30.02,29.98,10,10,10,15,4,24,0.00,0,,174
2012-10-19,58,55,51,55,52,43,100,83,66,30.05,29.87,29.73,10,4,1,16,2,25,1.78,8,Rain,49
2012-10-20,71,58,44,58,52,41,100,70,40,29.73,29.67,29.59,10,5,0,9,2,28,0.02,6,Fog-Rain,223
2012-10-21,54,48,42,43,41,38,96,78,59,29.90,29.81,29.74,10,9,1,17,6,28,0.01,7,Rain,241
2012-10-22,55,49,43,41,39,37,76,66,55,30.06,29.98,29.90,10,10,10,15,5,25,0.00,6,,323
2012-10-23,56,43,30,41,36,29,89,62,35,30.22,30.14,30.05,10,10,10,12,3,15,0.00,2,,1
2012-10-24,60,43,26,35,27,17,92,53,13,30.27,30.23,30.17,10,8,1,7,1,10,0.00,4,,355
2012-10-25,65,48,31,43,36,29,92,66,39,30.28,30.24,30.20,10,10,10,8,2,13,0.00,2,,177
2012-10-26,71,55,39,53,46,39,96,73,49,30.22,30.16,30.08,10,9,1,7,1,9,0.00,1,,183
2012-10-27,67,55,43,55,49,43,100,82,63,30.14,30.07,30.00,10,5,0,8,1,12,0.00,5,Fog,197
2012-10-28,64,54,44,49,44,41,100,73,46,30.07,30.01,29.91,10,5,0,8,3,13,0.00,2,Fog,30
2012-10-29,63,57,50,53,47,43,83,70,56,29.91,29.71,29.40,10,10,5,25,9,55,0.19,8,Rain,26
2012-10-30,66,60,53,56,54,50,93,75,56,29.57,29.51,29.39,10,8,2,29,6,49,0.77,7,Rain,136
2012-10-31,62,54,45,52,46,37,100,82,63,29.53,29.48,29.44,10,8,0,14,4,23,0.06,6,Fog-Rain,189